{"data":{"norad_id":58085,"epoch":"2026-05-24T23:40:00.892416Z","epoch_age_seconds":80169,"freshness":"FRESH","line1":"1 58085U 23160L   26144.98612144  .00000712  00000+0  35396-4 0  9999","line2":"2 58085  43.0053  10.4727 0001396 271.3344  88.7347 15.27576118144578","mean_motion":15.27576118,"eccentricity":0.0001396,"inclination_deg":43.0053,"raan_deg":10.4727,"arg_perigee_deg":271.3344,"mean_anomaly_deg":88.7347,"bstar":3.5396e-5,"rev_number":14457,"period_min":94.266988271939,"perigee_km":482.10289696708,"apogee_km":484.01854337055,"semimajor_km":6861.1977201688,"source":"CELESTRAK","updated_at":"2026-05-25T13:38:18.523105Z"}}